Wind_Speed
33 33 34 33 33 32 32 31 29 28 27 26 25 25 23 21 21 20 19 18 16 16 16 16 15 15 15 15 14 14 14 14 13 13 13 12 12 12 11 9 8 7 6
31 32 34 34 33 33 33 33 31 29 29 28 28 27 26 25 23 23 21 19 18 17 17 17 17 16 16 16 15 15 15 14 14 14 13 13 12 11 11 10 9 8 7
28 30 31 32 33 32 33 33 33 31 31 30 30 29 28 27 26 25 24 22 20 19 18 18 18 18 17 17 17 16 16 15 15 14 14 13 12 12 11 10 9 8 7
26 27 29 30 30 31 31 33 34 33 32 32 30 30 30 29 28 27 24 23 22 21 20 19 19 19 18 18 19 18 17 16 16 15 14 14 13 12 11 10 10 9 7
22 25 26 27 28 29 29 31 32 33 32 32 31 31 30 30 30 29 26 24 23 23 22 21 20 21 20 20 20 19 18 18 17 16 15 15 14 13 12 11 11 9 8
18 21 23 25 26 27 28 29 30 31 32 33 33 31 31 30 31 30 29 27 25 25 24 23 22 22 22 21 21 21 20 19 18 17 16 16 15 14 13 12 11 10 9
13 15 18 21 23 25 26 28 28 30 31 32 33 32 32 31 31 31 32 31 29 27 26 25 25 24 24 23 23 22 22 21 20 19 18 17 16 15 14 14 13 12 11
9 11 14 16 19 22 24 26 27 28 29 31 32 33 33 32 32 33 33 33 32 31 29 28 28 27 26 25 25 24 24 23 22 21 20 19 18 17 16 15 14 14 12
9 8 10 13 15 18 20 23 25 26 28 30 31 32 33 33 33 33 34 34 34 33 32 31 30 30 28 27 27 26 26 25 24 23 22 21 20 19 18 17 16 15 14
9 8 9 10 12 14 17 20 23 25 27 29 30 31 32 33 32 33 35 35 35 35 35 34 32 32 31 30 30 29 28 28 26 25 25 24 22 21 20 19 18 17 16
11 9 8 9 11 12 15 18 20 23 26 28 30 30 32 33 33 33 34 35 36 36 36 36 35 34 34 33 33 32 32 31 30 28 27 26 25 24 23 22 20 19 18
14 12 10 9 9 10 12 15 18 20 23 27 29 31 32 33 34 35 36 36 36 37 37 37 38 37 37 36 34 35 34 34 33 32 31 29 28 27 26 25 23 22 21
17 14 12 10 9 9 10 13 16 18 21 24 27 30 32 33 35 36 37 38 38 38 39 39 39 39 39 39 37 37 37 37 36 35 34 33 31 30 29 28 26 25 24
19 17 14 12 11 10 10 11 13 16 19 22 25 28 30 32 34 36 38 39 40 40 40 40 41 41 40 40 40 39 38 39 39 38 37 36 34 33 32 31 29 28 26
20 18 16 14 12 11 11 11 12 14 17 20 23 25 28 31 33 35 37 40 41 42 42 41 42 43 43 43 41 41 41 42 42 41 40 39 38 37 34 33 32 30 29
21 19 18 17 15 14 13 12 11 12 14 17 20 23 26 28 31 33 35 38 40 42 42 43 43 44 44 45 45 44 42 42 42 42 41 40 39 38 37 36 34 33 32
21 20 19 18 18 16 15 14 13 12 13 15 18 21 24 27 29 32 34 36 39 41 42 43 45 45 45 46 46 46 47 45 44 43 43 42 41 40 40 38 37 36 35
21 20 20 19 19 18 17 16 14 13 12 13 15 18 21 24 27 30 32 34 38 40 41 43 45 46 47 46 47 47 46 47 47 46 46 45 43 42 42 41 40 38 37
21 21 20 20 20 20 19 18 16 15 13 13 14 16 18 21 24 27 30 33 35 38 40 42 45 46 47 47 47 47 47 47 46 46 46 46 45 44 43 41 40 39 38
21 21 21 21 21 20 20 19 17 16 14 13 13 14 16 19 21 24 28 31 33 35 37 39 42 45 46 47 47 47 47 47 46 47 46 46 45 45 45 43 42 40 39
21 21 21 21 21 21 21 20 19 17 15 14 14 13 14 16 18 20 23 27 30 32 34 36 39 42 44 44 45 46 47 46 46 46 46 46 46 45 45 44 43 41 41
21 21 21 21 22 22 21 20 19 18 17 15 14 14 13 13 15 17 20 22 26 29 32 33 36 39 41 43 44 45 47 47 46 47 46 45 45 45 43 43 43 42 41
21 21 21 21 21 21 21 20 20 18 17 16 15 14 13 13 13 14 16 19 22 25 28 30 33 35 38 41 43 44 45 47 46 47 48 46 45 44 44 44 43 42 42
22 21 21 21 21 21 21 20 20 18 17 17 15 14 13 13 13 13 14 16 19 22 24 27 29 32 35 38 40 43 43 45 46 47 48 47 45 45 45 44 44 43 43
22 22 21 21 21 21 21 20 20 19 18 17 16 15 14 14 13 12 12 14 16 20 22 24 27 29 32 34 36 38 40 41 43 44 45 46 46 45 45 45 45 44 44
23 23 22 22 22 21 21 20 20 19 19 18 17 16 15 14 14 12 12 12 13 16 19 22 24 26 28 31 33 34 36 38 40 40 42 43 44 45 45 44 44 44 43
Wind_Direction
252 250 249 249 249 248 246 245 245 242 241 242 239 234 231 229 227 225 224 223 221 220 218 215 214 212 207 206 204 199 194 191 191 190 189 186 184 186 189 191 193 192 190
253 250 248 247 247 246 244 243 243 241 239 239 239 236 233 229 228 226 224 223 221 219 218 217 215 213 210 208 205 201 197 195 195 195 192 192 193 195 197 199 199 199 200
254 251 249 247 245 244 243 241 241 241 240 239 238 236 233 229 228 225 224 223 220 219 218 218 216 215 212 209 207 205 201 199 199 197 196 196 199 201 202 201 200 203 207
254 250 248 247 244 242 242 241 240 241 240 238 236 234 231 228 226 224 222 221 219 219 218 217 217 216 212 210 209 207 206 203 202 202 203 202 203 205 206 205 205 209 213
256 251 247 246 245 243 242 241 239 239 238 237 236 234 231 228 225 225 223 223 220 218 218 217 217 216 213 211 210 210 209 208 208 208 208 209 210 211 212 213 214 217 222
261 254 249 246 245 244 242 240 238 238 237 236 236 235 230 227 225 224 222 223 221 219 218 218 218 217 215 214 213 213 213 213 213 212 213 214 216 217 217 218 221 224 228
269 258 251 248 246 244 243 240 238 237 236 235 234 232 230 230 228 227 224 222 222 221 219 220 220 219 218 216 216 216 216 216 216 216 218 219 220 220 221 224 226 228 232
287 267 256 251 248 246 243 241 239 237 236 235 234 233 230 230 230 230 225 222 222 222 222 222 222 221 220 220 218 219 218 218 219 219 221 222 223 224 226 228 231 233 238
318 292 269 258 253 249 246 242 240 238 237 236 236 235 233 230 230 230 226 223 222 222 222 221 222 222 221 221 221 221 221 221 222 223 224 224 226 227 229 231 234 237 243
338 316 290 270 261 254 248 244 240 239 238 236 234 234 233 233 232 231 230 227 223 222 222 222 223 222 222 223 223 223 224 224 225 226 227 227 229 230 232 234 237 241 246
354 339 317 290 273 264 256 248 244 240 238 237 235 233 232 232 233 233 231 229 226 224 223 224 223 223 223 224 225 226 226 227 227 229 230 230 232 233 235 237 239 243 247
0 351 337 319 296 277 265 254 248 245 242 239 237 236 234 233 232 233 232 229 228 226 225 225 226 225 225 226 227 227 228 229 230 231 232 233 234 235 237 239 241 244 248
2 356 347 336 319 300 282 266 256 251 246 243 240 238 237 235 234 234 233 232 231 230 228 226 226 226 226 227 228 229 230 230 231 232 233 234 235 237 237 239 242 246 249
4 1 356 347 333 319 303 285 270 259 252 247 244 241 239 238 237 235 234 233 232 232 231 230 229 228 227 227 228 229 231 231 232 233 234 234 236 237 238 239 242 246 249
6 4 2 357 347 334 320 304 287 271 261 254 249 244 241 240 239 237 236 235 233 232 232 231 232 231 230 230 230 230 232 234 233 234 234 235 236 238 240 241 242 246 249
5 4 3 1 356 348 337 323 307 289 273 261 254 249 245 242 241 240 239 237 235 233 232 231 232 231 232 232 232 232 233 233 233 235 235 235 236 238 240 242 244 247 249
2 2 2 359 357 353 346 336 323 309 290 272 259 254 250 247 244 242 241 238 236 234 232 231 233 233 232 233 233 233 233 234 234 235 236 237 238 239 240 241 244 246 249
1 1 0 359 357 353 348 342 333 323 310 290 272 262 256 252 248 245 242 240 237 235 233 231 232 233 234 234 234 234 234 235 235 236 236 238 238 239 239 241 244 245 248
359 0 359 358 356 354 351 346 340 331 321 306 289 276 265 258 253 248 245 242 239 236 234 232 233 234 235 235 235 235 236 236 236 237 237 237 237 238 239 242 244 246 248
357 357 357 357 357 355 353 350 345 337 329 319 305 290 277 267 258 252 247 243 241 238 236 234 234 235 235 236 235 235 236 235 236 236 237 238 238 239 240 243 244 245 247
355 354 354 355 356 355 354 353 350 345 337 329 320 307 293 280 268 258 251 246 243 240 238 236 235 235 236 236 235 235 234 234 235 236 238 238 239 240 242 241 243 245 247
352 352 352 353 354 353 352 352 351 350 346 340 334 323 311 299 285 270 258 252 246 242 239 238 236 236 236 237 236 236 235 235 235 235 237 238 240 241 241 241 242 244 246
349 349 349 350 352 352 352 351 351 350 348 345 342 335 325 317 304 287 270 259 251 246 243 241 240 238 237 237 238 238 237 236 236 236 236 238 240 240 241 242 243 244 246
344 344 345 346 347 348 349 350 350 349 347 346 343 339 330 323 315 301 282 267 256 250 246 243 241 239 238 238 238 239 238 237 237 237 237 238 238 240 241 242 243 244 246
339 340 340 341 342 343 345 345 346 346 346 344 341 337 331 325 319 310 295 277 263 253 248 245 243 240 239 239 239 239 239 238 238 238 238 237 238 239 241 243 243 243 245
333 333 335 336 337 338 339 341 342 342 341 341 341 338 334 329 323 316 306 291 273 261 254 249 245 242 241 239 239 239 239 238 238 239 239 239 239 240 241 242 244 244 245
Height
5819 5821 5823 5826 5828 5831 5834 5837 5840 5843 5846 5848 5851 5854 5856 5859 5861 5862 5864 5866 5868 5870 5871 5873 5875 5877 5879 5881 5883 5885 5886 5887 5889 5891 5892 5894 5896 5897 5899 5900 5901 5902 5903
5811 5813 5815 5818 5821 5824 5827 5830 5833 5836 5839 5842 5846 5849 5852 5854 5857 5859 5861 5863 5865 5867 5869 5871 5873 5875 5877 5880 5882 5883 5885 5886 5888 5890 5891 5893 5895 5896 5898 5899 5900 5901 5902
5803 5805 5808 5810 5813 5816 5819 5823 5826 5830 5833 5836 5840 5843 5846 5849 5852 5854 5857 5859 5862 5864 5866 5868 5871 5873 5875 5878 5880 5882 5884 5885 5887 5889 5890 5892 5894 5895 5897 5898 5899 5901 5902
5796 5798 5801 5803 5806 5809 5812 5816 5819 5823 5826 5830 5833 5837 5840 5844 5847 5849 5852 5855 5858 5860 5863 5865 5868 5870 5873 5875 5878 5880 5882 5884 5886 5888 5889 5891 5893 5894 5896 5897 5898 5900 5900
5790 5792 5794 5796 5799 5802 5805 5809 5812 5816 5819 5823 5826 5830 5834 5838 5841 5844 5847 5851 5853 5856 5859 5862 5865 5867 5870 5873 5875 5878 5880 5882 5884 5886 5888 5890 5892 5893 5895 5896 5897 5898 5899
5785 5786 5788 5790 5793 5796 5799 5802 5805 5809 5812 5816 5820 5824 5828 5831 5835 5839 5843 5846 5849 5852 5855 5858 5861 5864 5867 5870 5872 5875 5877 5880 5882 5884 5886 5888 5890 5892 5893 5895 5896 5897 5898
5781 5782 5783 5785 5787 5790 5793 5796 5799 5802 5805 5809 5813 5817 5821 5825 5829 5833 5837 5840 5844 5847 5851 5854 5857 5860 5863 5866 5869 5872 5874 5877 5879 5882 5884 5886 5888 5890 5891 5893 5894 5895 5896
5778 5779 5780 5781 5783 5785 5787 5790 5792 5795 5798 5802 5806 5810 5814 5819 5822 5826 5830 5834 5838 5842 5846 5849 5853 5856 5859 5862 5865 5868 5871 5874 5876 5879 5881 5883 5885 5887 5889 5890 5891 5893 5894
5777 5776 5777 5777 5779 5780 5781 5784 5786 5789 5792 5795 5799 5803 5807 5811 5815 5819 5823 5828 5831 5835 5839 5843 5847 5851 5854 5858 5861 5864 5867 5870 5873 5875 5877 5880 5882 5884 5886 5887 5889 5890 5891
5776 5774 5774 5774 5775 5775 5777 5778 5781 5783 5786 5789 5792 5796 5800 5804 5808 5812 5817 5821 5825 5829 5833 5837 5841 5845 5848 5852 5856 5859 5862 5865 5868 5871 5873 5876 5878 5880 5882 5884 5885 5887 5888
5775 5773 5772 5771 5771 5771 5772 5773 5775 5777 5779 5782 5785 5788 5792 5796 5800 5804 5809 5813 5818 5822 5826 5830 5834 5838 5842 5845 5849 5853 5856 5860 5863 5866 5868 5871 5873 5875 5878 5880 5881 5883 5884
5774 5772 5770 5769 5768 5767 5768 5768 5770 5771 5773 5775 5778 5781 5785 5789 5793 5797 5801 5805 5809 5814 5818 5822 5827 5831 5834 5838 5842 5846 5850 5853 5857 5860 5863 5865 5868 5870 5872 5875 5877 5878 5880
5773 5770 5768 5766 5765 5764 5764 5764 5765 5765 5767 5769 5771 5774 5777 5781 5785 5789 5793 5797 5801 5805 5810 5815 5819 5823 5827 5831 5835 5838 5842 5846 5849 5853 5856 5859 5862 5864 5866 5869 5871 5873 5875
5773 5769 5767 5765 5763 5762 5761 5760 5760 5760 5761 5763 5765 5767 5770 5773 5776 5780 5784 5788 5792 5797 5801 5806 5810 5814 5818 5822 5826 5830 5833 5837 5841 5845 5849 5852 5855 5857 5860 5862 5865 5867 5869
5773 5769 5766 5763 5761 5759 5758 5757 5756 5756 5756 5757 5758 5760 5762 5765 5768 5771 5775 5779 5783 5787 5792 5796 5801 5805 5809 5813 5817 5821 5825 5829 5833 5837 5840 5844 5847 5850 5853 5856 5858 5860 5862
5773 5769 5765 5763 5760 5758 5755 5754 5752 5751 5750 5751 5751 5753 5755 5757 5759 5761 5765 5768 5772 5777 5782 5786 5790 5795 5799 5804 5808 5812 5816 5820 5823 5827 5831 5835 5839 5842 5845 5848 5851 5853 5856
5773 5769 5765 5762 5759 5756 5753 5751 5749 5747 5746 5745 5745 5746 5747 5748 5750 5752 5755 5758 5762 5766 5771 5776 5779 5784 5788 5793 5798 5802 5806 5810 5815 5819 5823 5826 5830 5834 5837 5840 5843 5845 5848
5773 5769 5765 5761 5758 5754 5751 5748 5745 5743 5741 5740 5739 5739 5740 5741 5742 5743 5746 5748 5752 5755 5761 5765 5769 5773 5778 5782 5787 5791 5796 5800 5805 5809 5813 5817 5820 5824 5828 5831 5834 5837 5840
5773 5768 5764 5761 5757 5753 5749 5745 5742 5739 5737 5735 5734 5734 5733 5733 5734 5735 5737 5739 5742 5745 5750 5755 5758 5762 5766 5771 5776 5780 5785 5790 5794 5798 5802 5806 5810 5814 5818 5821 5825 5828 5831
5772 5768 5764 5760 5756 5751 5747 5743 5740 5737 5734 5732 5730 5728 5727 5726 5726 5727 5728 5730 5733 5736 5740 5744 5748 5752 5756 5760 5765 5770 5775 5779 5784 5788 5792 5796 5800 5804 5808 5812 5815 5818 5821
5771 5767 5763 5759 5754 5750 5746 5741 5738 5734 5731 5728 5726 5724 5722 5721 5720 5720 5721 5722 5724 5727 5731 5734 5738 5742 5746 5750 5755 5759 5763 5768 5772 5777 5781 5786 5790 5794 5797 5801 5805 5809 5812
5770 5766 5762 5758 5753 5749 5744 5740 5736 5732 5729 5726 5723 5721 5718 5717 5715 5715 5714 5715 5717 5719 5722 5725 5729 5733 5736 5740 5743 5748 5752 5758 5763 5768 5770 5775 5778 5782 5787 5791 5795 5798 5801
5769 5765 5761 5756 5752 5748 5743 5739 5735 5731 5727 5724 5721 5718 5716 5714 5712 5710 5709 5709 5710 5712 5714 5718 5721 5723 5726 5730 5734 5738 5742 5746 5751 5755 5759 5764 5768 5772 5777 5781 5784 5788 5791
5767 5763 5759 5755 5751 5747 5742 5738 5734 5730 5726 5723 5719 5716 5713 5711 5708 5706 5705 5704 5704 5705 5707 5710 5712 5715 5717 5720 5724 5728 5731 5735 5740 5744 5748 5753 5757 5762 5766 5769 5774 5777 5780
5765 5761 5757 5753 5749 5745 5741 5737 5732 5729 5725 5721 5718 5714 5711 5708 5705 5703 5701 5700 5700 5700 5701 5703 5705 5706 5709 5711 5714 5717 5721 5726 5730 5734 5737 5742 5746 5750 5754 5758 5762 5766 5769
5762 5758 5755 5751 5747 5743 5739 5735 5731 5727 5723 5720 5716 5712 5709 5705 5702 5700 5698 5696 5695 5695 5696 5697 5698 5700 5701 5703 5706 5709 5712 5716 5720 5724 5727 5731 5735 5738 5743 5747 5751 5754 5758